Comodoro Rivadavia, Argentina

3:45 AM America en Octubre 16, 2018 (GMT +0000)
GEN. Enrique Mosconi International

Tiempo Historia de SAVC - Marzo, 2018

Change the Weather History Date:

Miércoles, Marzo 14, 2018

  Actual Average Record
Temperature  
Temperatura media 56 ° F -  
Temperatura máxima 67 ° F 69 ° F 78 ° F (1998)
Temperatura mínima 46 ° F 50 ° F 41 ° F (2011)
Degree Days  
Grados día de calefacción 8    
Growing Degree Days 6 (Base 50)    
Moisture  
Punto de rocío 34 ° F    
Average Humidity 38    
Maximum Humidity 59    
Minimum Humidity 18    
Precipitación  
Precipitación 0.00 pul 0.03 pul - ()
Presión al nivel del mar  
Presión al nivel del mar 29.51 pul    
Viento  
Velocidad del viento 16 mph ()    
Velocidad máxima del viento 23 mph    
Max Gust Speed 44 mph    
Visibilidad 11.6 Millas    
Eventos      
Averages and records for this station are not official NWS values.
T = Trace of Precipitation, MM = Missing Value Source: Averaged Metar Reports

Daily Weather History Graph

Daily Weather History Graph

Search for Another Location

Airport or City:

Astronomía

Mar. 14, 2018 Salida Puesta
Hora real 7:24 AM -03 7:53 PM -03
Crepúsculo civil 6:54 AM -03 8:22 PM -03
Crepúsculo náutico 6:18 AM -03 8:58 PM -03
Crepúsculo astronómico 5:42 AM -03 9:34 PM -03
Luna 4:09 AM -03 (3/14) 6:45 PM -03 (3/14)
Horas de luz 13h 28m
Horas de luz
12h 28m
Creciente menguante, 9% of the Moon is Illuminated
Mar 14
Creciente menguante
Mar 17
Nueva
Mar 24
Cuarto creciente
Mar 31
Luna llena
Abr 8
Cuarto menguante

Hourly Weather History & Observations

Hora (-03) Temp. Punto de rocío Humedad Presión Visibilidad Wind Dir Velocidad del viento Velocidad de ráfagas Precip Eventos Condiciones
12:00 AM 63 ° F 40 ° F 31% 29.34 pul 19 mi NO 23.0 mph - -   Parcialmente nublado
12:00 AM 62.6 ° F 41.0 ° F 45% 29.36 pul - NO 23.0 mph 43.7 mph N/A   Despejado
1:00 AM 62.6 ° F 39.2 ° F 42% 29.39 pul - ONO 21.9 mph 35.7 mph N/A   Despejado
2:00 AM 60.8 ° F 42.8 ° F 52% 29.42 pul - Oeste 16.1 mph - N/A   Despejado
3:00 AM 58 ° F 42 ° F 44% 29.39 pul 19 mi ONO 13.8 mph - -   Parcialmente nublado
3:00 AM 57.2 ° F 42.8 ° F 59% 29.42 pul - ONO 13.8 mph - N/A   Despejado
4:00 AM 57.2 ° F 37.4 ° F 48% 29.44 pul 6.2 mi Oeste 15.0 mph - N/A   Nubes dispersas
5:00 AM 55.4 ° F 33.8 ° F 44% 29.44 pul 6.2 mi Oeste 17.3 mph - N/A   Nubes dispersas
6:00 AM 51 ° F 33 ° F 37% 29.44 pul 19 mi Oeste 16.1 mph - -   Nubes dispersas
6:00 AM 51.8 ° F 32.0 ° F 47% 29.47 pul - Oeste 16.1 mph - N/A   Despejado
7:00 AM 48.2 ° F 30.2 ° F 50% 29.47 pul - Oeste 16.1 mph - N/A   Despejado
8:00 AM 48.2 ° F 28.4 ° F 46% 29.47 pul - Oeste 20.7 mph - N/A   Despejado
9:00 AM 50 ° F 28 ° F 30% 29.47 pul 19 mi Oeste 19.6 mph - -   Nubes dispersas
9:00 AM 50.0 ° F 28.4 ° F 43% 29.50 pul - Oeste 19.6 mph 31.1 mph N/A   Despejado
10:00 AM 55.4 ° F 30.2 ° F 38% 29.53 pul - Oeste 16.1 mph 28.8 mph N/A   Despejado
11:00 AM 57.2 ° F 30.2 ° F 36% 29.53 pul - Oeste 18.4 mph 29.9 mph N/A   Despejado
12:00 PM 61 ° F 31 ° F 21% 29.51 pul 19 mi OSO 16.1 mph - -   Nubes dispersas
12:00 PM 60.8 ° F 32.0 ° F 34% 29.53 pul 6.2 mi OSO 16.1 mph 31.1 mph N/A   Parcialmente nublado
1:00 PM 62.6 ° F 33.8 ° F 34% 29.53 pul 6.2 mi Oeste 16.1 mph 29.9 mph N/A   Parcialmente nublado
2:00 PM 64.4 ° F 32.0 ° F 30% 29.53 pul 6.2 mi Oeste 18.4 mph 29.9 mph N/A   Nubes dispersas
3:00 PM 67 ° F 35 ° F 19% 29.50 pul 19 mi SO 16.1 mph - -   Parcialmente nublado
3:00 PM 66.2 ° F 35.6 ° F 32% 29.53 pul 6.2 mi SO 16.1 mph 29.9 mph N/A   Nubes dispersas
4:00 PM 66.2 ° F 35.6 ° F 32% 29.53 pul 6.2 mi Oeste 12.7 mph 24.2 mph N/A   Nubes dispersas
5:00 PM 64.4 ° F 32.0 ° F 30% 29.53 pul 6.2 mi Oeste 15.0 mph - N/A   Nubes dispersas
6:00 PM 64 ° F 31 ° F 18% 29.54 pul 19 mi Oeste 20.7 mph - -   Parcialmente nublado
6:00 PM 64.4 ° F 30.2 ° F 28% 29.56 pul 6.2 mi Oeste 20.7 mph 32.2 mph N/A   Nubes dispersas
7:00 PM 62.6 ° F 35.6 ° F 37% 29.62 pul 6.2 mi SO 13.8 mph - N/A   Nubes dispersas
8:00 PM 60.8 ° F 35.6 ° F 39% 29.62 pul 6.2 mi SO 12.7 mph - N/A   Nubes dispersas
9:00 PM 60 ° F 37 ° F 30% 29.62 pul 19 mi SO 11.5 mph - -   Parcialmente nublado
9:00 PM 60.8 ° F 37.4 ° F 42% 29.65 pul - SO 11.5 mph - N/A   Despejado
10:00 PM 59.0 ° F 33.8 ° F 39% 29.68 pul - ONO 12.7 mph - N/A   Despejado
11:00 PM 55.4 ° F 35.6 ° F 47% 29.68 pul - ONO 19.6 mph - N/A   Despejado